Tracking 31027 objects as of 18-Jul-2025
HD Live streaming from Space Station
objects crossing your sky now

STARLINK-5720

Track STARLINK-5720 now!
10-day predictions
STARLINK-5720 is classified as:


NORAD ID: 55619
Int'l Code: 2023-020BC
Perigee: 565.4 km
Apogee: 567.0 km
Inclination: 43.0 °
Period: 95.8 minutes
Semi major axis: 6937 km
RCS: Unknown
Launch date: February 12, 2023
Source: United States (US)
Launch site: AIR FORCE EASTERN TEST RANGE (AFETR)
Your satellite tracking list
Your tracking list is empty




NASA's NSSDC Master Catalog

Two Line Element Set (TLE):
1 55619U 23020BC  25198.03858160 -.00000113  00000-0  66923-5 0  9996
2 55619  43.0009 191.9247 0001148 280.8864  79.1849 15.02533130133623
Source of the keplerian elements: AFSPC